Skip Page Navigation
NASA JPL Caltech
NASA Logo - Jet Propulsion Laboratory + View the NASA Portal
+ Near-Earth Object (NEO) Program
Search JPL
JPL Home Earth Solar System Stars & Galaxies Technology
JPL Solar System Dynamics
BODIES ORBITS EPHEMERIDES TOOLS PHYSICAL DATA DISCOVERY FAQ SITE MAP
JPL Small-Body Database Browser
Search: [ help ]  
34399 Hachiojihigashi (2000 RD79)
Classification: Main-belt Asteroid          SPK-ID: 2034399
Ephemeris | Orbit Diagram | Orbital Elements | Physical Parameters | Discovery Circumstances ]

[ show orbit diagram ]
Orbital Elements at Epoch 2456400.5 (2013-Apr-18.0) TDB
Reference: MPO231642 (heliocentric ecliptic J2000)
 Element Value Uncertainty (1-sigma)   Units 
e 0.1000332 n/a  
a 2.6780377 n/a AU
q 2.4101450 n/a AU
i 9.65835 n/a deg
node 254.21226 n/a deg
peri 92.71273 n/a deg
M 327.74649 n/a deg
tp 2456543.9161094
(2013-Sep-08.41610940)
n/a JED
period 1600.7497912
4.38
n/a
n/a
d
yr
n 0.22489461 n/a deg/d
Q 2.9459304 n/a AU
  Orbit Determination Parameters
   # obs. used (total)      532  
   first obs. used      1997-??-??  
   last obs. used      2012-05-26  
   # oppositions      12  
   planetary ephem.      DE403  
   condition code      0  
   fit RMS      0.55  
   data source      MPC:mpn  
   producer      MPCLINUX  

Additional Information
 T_jup = 3.350 

Ephemeris | Orbit Diagram | Orbital Elements | Physical Parameters | Discovery Circumstances ]

Physical Parameter Table
Parameter Symbol Value Units Sigma Reference Notes
absolute magnitude H 14.4 mag n/a PDS3 (MPO 21745)  

34399 Hachiojihigashi           Discovered 2000 Sept. 7 by BATTeRS at Bisei Spaceguard Center.
The team of Hachiojihigashi, composed of Nishi, Sakurai and Tamai from the Hachioji-higashi High School, is a prizewinner in the sixteenth Satellite Design Contest 2008 for their space experiment proposal of "A fly--An advance to the space".
NOTE: some special characters may not display properly (any characters within {} are an attempt to place the proper accent above a character)
Reference: 20100130/MPCPages.arcLast Updated: 2013-03-29

Alternate Designations
 2000 RD79 = 1999 JH125 
Ephemeris | Orbit Diagram | Orbital Elements | Physical Parameters | Discovery Circumstances ]
ABOUT SSD CREDITS/AWARDS PRIVACY/COPYRIGHT GLOSSARY LINKS
FirstGov 2013-May-24 14:38 UT
(server date/time)  
NASA Home Page
Site Manager:   Donald K. Yeomans
Webmaster  Alan B. Chamberlin